(107442) = 2001 DR17

Discovered at Socorro on 2001-02-16 by LINEAR.

Orbit

Orbit type: Main Belt

Note: WebGL enabled browser required.

epoch2024-03-31.0
epoch JD2460400.5
perihelion date2020-01-17.47269
perihelion JD2458865.97269
argument of perihelion (°)136.02249
ascending node (°)127.25243
inclination (°)10.96419
eccentricity0.2238395
perihelion distance (AU)2.1105158
Tisserand w.r.t. Jupiter3.3
ΔV w.r.t. Earth (km/sec)9.7
semimajor axis (AU)2.7191745
mean anomaly (°)337.30523
mean daily motion (°/day)0.21981050
aphelion distance (AU)3.328
period (years)4.48
P-vector [x]-0.10701642
P-vector [y]-0.95666322
P-vector [z]-0.27081907
Q-vector [x]0.98266384
Q-vector [y]-0.06029476
Q-vector [z]-0.17531774
absolute magnitude15.52
phase slope0.15
uncertainty0
referenceE2024-H23
observations used912
oppositions18
arc length (days)10343
first opposition used1995
last opposition used2024
residual rms (arc-secs)0.67
perturbers coarse indicatorM-v
perturbers precise indicator003Ek
first observation date used1995-12-23.0
last observation date used2024-04-17.0
computer nameMPCLINUX
JD of orbit computation2456789.333654
perihelion JD uncertainty (days)8.1599E-05
argument of perihelion uncertainty (°)3.0237E-05
ascending node uncertainty (°)2.7051E-05
inclination uncertainty (°)5.7026E-06
eccentricity uncertainty 5.3152E-08
perihelion distance uncertainty (AU)1.4720E-07
Minimum Orbit Intersection Distances (in AU)
for orbit epoch: 2460400.5, reference: E2024-H23
Mercury1.65643
Venus1.39438
Earth1.1097
Mars0.68952
Jupiter1.84429
Saturn5.74513
Uranus15.4875
Neptune26.6285

Observations

913 total observations over interval: 1992 03 02.21389 – 2024 03 21.635240
These data are available for download (format description).

Date (UT) J2000 RA J2000 Dec Magn Location Ref
1992 03 02.21389 10 48 08.96 +17 11 50.3   809 – European Southern Observatory, La Silla MPS 275408
1995 12 23.46125 08 24 54.79 +15 47 20.8 20.7 V 691 – Steward Observatory, Kitt Peak-Spacewatch MPS 79846
1995 12 23.48477 08 24 53.94 +15 47 25.8 20.7 V 691 – Steward Observatory, Kitt Peak-Spacewatch MPS 79846
1995 12 23.50821 08 24 53.12 +15 47 31.0 20.9 V 691 – Steward Observatory, Kitt Peak-Spacewatch MPS 79846
2001 02 16.30227 11 12 09.68 +14 22 28.6 19.6   704 – Lincoln Laboratory ETS, New Mexico MPS 27012
2001 02 16.31633 11 12 09.12 +14 22 36.0 19.5   704 – Lincoln Laboratory ETS, New Mexico MPS 27012
2001 02 16.33039 11 12 08.51 +14 22 44.1 20.0   704 – Lincoln Laboratory ETS, New Mexico MPS 27012
2001 02 16.34444 11 12 07.93 +14 22 51.5 19.7   704 – Lincoln Laboratory ETS, New Mexico MPS 27012
2001 02 20.36342 11 09 16.54 +15 00 02.3 18.9   704 – Lincoln Laboratory ETS, New Mexico MPS 27012
2001 02 20.37763 11 09 15.85 +15 00 09.7 19.1   704 – Lincoln Laboratory ETS, New Mexico MPS 27012
2001 02 20.39202 11 09 15.23 +15 00 16.7 18.6   704 – Lincoln Laboratory ETS, New Mexico MPS 27012
2001 02 20.40627 11 09 14.55 +15 00 24.7 18.9   704 – Lincoln Laboratory ETS, New Mexico MPS 27012
2001 02 20.42045 11 09 13.94 +15 00 33.6 19.7   704 – Lincoln Laboratory ETS, New Mexico MPS 27012
2001 03 04.26483 10 59 41.53 +16 48 27.0 18.3   704 – Lincoln Laboratory ETS, New Mexico MPS 28022
2001 03 04.27870 10 59 40.80 +16 48 33.9 19.2   704 – Lincoln Laboratory ETS, New Mexico MPS 28022
2001 03 04.29254 10 59 40.14 +16 48 42.3 18.8   704 – Lincoln Laboratory ETS, New Mexico MPS 28022
2001 03 04.30639 10 59 39.32 +16 48 49.4 18.9   704 – Lincoln Laboratory ETS, New Mexico MPS 28022
2001 03 04.32024 10 59 38.69 +16 48 56.2 19.0   704 – Lincoln Laboratory ETS, New Mexico MPS 28022
2001 03 16.24078 10 49 41.13 +18 23 19.5 18.7   704 – Lincoln Laboratory ETS, New Mexico MPS 28022
2001 03 16.25363 10 49 40.52 +18 23 25.2 19.4   704 – Lincoln Laboratory ETS, New Mexico MPS 28022
2001 03 16.27936 10 49 39.25 +18 23 35.6 19.2   704 – Lincoln Laboratory ETS, New Mexico MPS 28022
2001 03 16.29224 10 49 38.46 +18 23 40.2 19.3   704 – Lincoln Laboratory ETS, New Mexico MPS 28022
2001 03 19.23562 10 47 20.13 +18 43 18.6 17.7   682 – Kanab MPS 129963
2001 03 19.26620 10 47 18.58 +18 43 31.6 18.9   682 – Kanab MPS 129963
2001 03 21.23794 10 45 49.73 +18 55 43.6 20.7   608 – Haleakala-AMOS MPS 28022
2001 03 21.24912 10 45 49.18 +18 55 47.5 20.5   608 – Haleakala-AMOS MPS 28022
2001 03 21.26044 10 45 48.67 +18 55 51.9 21.1   608 – Haleakala-AMOS MPS 28022
2002 06 09.54171 22 09 04.21 -10 33 53.5 20.2   608 – Haleakala-AMOS MPS 61073
2002 06 09.55216 22 09 04.72 -10 33 53.9 21.1   608 – Haleakala-AMOS MPS 61073
2002 06 09.56261 22 09 05.09 -10 33 54.5 20.3   608 – Haleakala-AMOS MPS 61073
2002 07 09.36793 22 20 59.44 -12 17 58.7 18.8   704 – Lincoln Laboratory ETS, New Mexico MPS 61073
2002 07 09.38062 22 20 59.40 -12 18 03.8 18.6   704 – Lincoln Laboratory ETS, New Mexico MPS 61073
2002 07 09.39325 22 20 59.29 -12 18 08.8 18.7   704 – Lincoln Laboratory ETS, New Mexico MPS 61073
2002 07 09.40591 22 20 59.27 -12 18 13.8 18.7   704 – Lincoln Laboratory ETS, New Mexico MPS 61073
2002 07 23.44377 22 17 58.03 -14 10 18.0 18.5   644 – Palomar Mountain/NEAT MPS 61073
2002 07 23.45421 22 17 57.75 -14 10 24.1 18.2   644 – Palomar Mountain/NEAT MPS 61073
2002 07 23.46461 22 17 57.47 -14 10 29.5 18.4   644 – Palomar Mountain/NEAT MPS 61073
2002 08 03.39052 22 12 08.89 -15 57 18.0 17.9   644 – Palomar Mountain/NEAT MPS 61073
2002 08 03.40142 22 12 08.42 -15 57 24.7 18.0   644 – Palomar Mountain/NEAT MPS 61073
2002 08 03.41227 22 12 07.98 -15 57 31.2 18.1   644 – Palomar Mountain/NEAT MPS 61073
2002 08 14.30000 22 04 15.65 -17 49 07.6 18.5   704 – Lincoln Laboratory ETS, New Mexico MPS 61073
2002 08 14.31546 22 04 14.75 -17 49 17.2 19.1   704 – Lincoln Laboratory ETS, New Mexico MPS 61073
2002 08 14.33091 22 04 13.97 -17 49 25.9 19.4   704 – Lincoln Laboratory ETS, New Mexico MPS 61073
2002 08 14.34637 22 04 13.32 -17 49 36.4 19.2   704 – Lincoln Laboratory ETS, New Mexico MPS 61073
2002 08 14.36203 22 04 12.47 -17 49 42.3 19.2   704 – Lincoln Laboratory ETS, New Mexico MPS 61073
2002 08 18.25369 22 01 09.30 -18 28 18.0 18.0   644 – Palomar Mountain/NEAT MPS 61073
2002 08 18.32432 22 01 05.78 -18 28 59.5 17.9   644 – Palomar Mountain/NEAT MPS 61073
2002 08 18.38961 22 01 02.52 -18 29 37.3 18.0   644 – Palomar Mountain/NEAT MPS 61073
2002 09 16.14461 21 42 18.91 -21 56 11.1 19.1   644 – Palomar Mountain/NEAT MPS 63087
2002 09 16.16566 21 42 18.36 -21 56 16.8 19.0   644 – Palomar Mountain/NEAT MPS 63087
2002 09 16.19149 21 42 17.74 -21 56 23.0 19.1   644 – Palomar Mountain/NEAT MPS 63087
2002 10 26.09473 21 48 01.77 -21 57 42.2 19.9   704 – Lincoln Laboratory ETS, New Mexico MPS 65725
2002 10 26.12897 21 48 03.07 -21 57 37.3 19.6   704 – Lincoln Laboratory ETS, New Mexico MPS 65725
2002 10 26.14598 21 48 03.61 -21 57 34.2 19.6   704 – Lincoln Laboratory ETS, New Mexico MPS 65725
2004 12 20.33806 08 36 38.47 +15 32 01.7 19.8 R G96 – Mt. Lemmon Survey MPS 122656
2004 12 20.34987 08 36 38.13 +15 32 04.4 20.1 R G96 – Mt. Lemmon Survey MPS 122656
2004 12 20.36168 08 36 37.80 +15 32 06.6 19.5 R G96 – Mt. Lemmon Survey MPS 122656
2004 12 20.37347 08 36 37.44 +15 32 08.9 19.5 R G96 – Mt. Lemmon Survey MPS 122656
2004 12 20.447737 08 36 35.254 +15 32 24.65 20.70 V 645 – Apache Point-Sloan Digital Sky Survey MPS 389831
2004 12 20.451209 08 36 35.155 +15 32 25.31 21.86   645 – Apache Point-Sloan Digital Sky Survey MPS 389831
2005 01 13.24925 08 19 58.92 +17 21 53.4 19.9 V 691 – Steward Observatory, Kitt Peak-Spacewatch MPS 124034
2005 01 13.27481 08 19 57.58 +17 22 01.9 19.9 V 691 – Steward Observatory, Kitt Peak-Spacewatch MPS 124034
2005 01 13.30064 08 19 56.14 +17 22 10.3 20.1 V 691 – Steward Observatory, Kitt Peak-Spacewatch MPS 124034
2005 02 02.28115 08 01 42.02 +19 13 45.5 19.9   704 – Lincoln Laboratory ETS, New Mexico MPS 125613
2005 02 02.29397 08 01 41.39 +19 13 51.4 19.9   704 – Lincoln Laboratory ETS, New Mexico MPS 125613
2005 02 02.30676 08 01 40.63 +19 13 55.0 19.8   704 – Lincoln Laboratory ETS, New Mexico MPS 125613
2005 02 02.31958 08 01 39.93 +19 13 59.0 19.7   704 – Lincoln Laboratory ETS, New Mexico MPS 125613
2005 02 02.33231 08 01 39.19 +19 14 03.0 20.1   704 – Lincoln Laboratory ETS, New Mexico MPS 125613
2005 03 08.15269 07 41 42.64 +21 39 43.9 19.9 R G96 – Mt. Lemmon Survey MPS 127822
2005 03 08.15933 07 41 42.54 +21 39 45.1 20.1 R G96 – Mt. Lemmon Survey MPS 127822
2005 03 08.16597 07 41 42.43 +21 39 46.2 19.6 R G96 – Mt. Lemmon Survey MPS 127823
2005 03 08.17262 07 41 42.35 +21 39 47.1 19.5 R G96 – Mt. Lemmon Survey MPS 127823
2006 04 19.43986 16 09 39.10 -02 12 42.9 18.9 V 691 – Steward Observatory, Kitt Peak-Spacewatch MPS 169748
2006 04 19.45720 16 09 38.80 -02 12 37.2 19.0 V 691 – Steward Observatory, Kitt Peak-Spacewatch MPS 169748
2006 04 19.47449 16 09 38.49 -02 12 31.4 18.9 V 691 – Steward Observatory, Kitt Peak-Spacewatch MPS 169748
2006 04 27.33049 16 06 42.55 -01 31 25.3 18.2 V 703 – Catalina Sky Survey MPS 170680
2006 04 27.33928 16 06 42.22 -01 31 22.8 18.1 V 703 – Catalina Sky Survey MPS 170680
2006 04 27.34814 16 06 41.94 -01 31 20.6 17.9 V 703 – Catalina Sky Survey MPS 170680
2006 04 30.42662 16 05 05.28 -01 16 55.4 18.6 V 691 – Steward Observatory, Kitt Peak-Spacewatch MPS 171314
2006 04 30.44391 16 05 04.66 -01 16 50.7 18.6 V 691 – Steward Observatory, Kitt Peak-Spacewatch MPS 171314
2006 04 30.46122 16 05 04.04 -01 16 46.0 18.6 V 691 – Steward Observatory, Kitt Peak-Spacewatch MPS 171314
2006 05 04.42605 16 02 39.95 -01 00 11.4 18.5 V 691 – Steward Observatory, Kitt Peak-Spacewatch MPS 171314
2006 05 04.44342 16 02 39.24 -01 00 07.2 18.4 V 691 – Steward Observatory, Kitt Peak-Spacewatch MPS 171314
2006 05 04.46082 16 02 38.52 -01 00 03.2 19.6 V 691 – Steward Observatory, Kitt Peak-Spacewatch MPS 171314
2006 05 19.31256 15 51 21.81 -00 24 41.7 17.2 R 699 – Lowell Observatory-LONEOS MPS 171859
2006 05 19.32711 15 51 21.04 -00 24 40.8   699 – Lowell Observatory-LONEOS MPS 171859
2006 05 19.34171 15 51 20.29 -00 24 40.3   699 – Lowell Observatory-LONEOS MPS 171859
